Change the Weather History Date:

Sunday, May 19, 2013

  Actual Average Record
Temperature  
Mean Temperature 54 °F 57 °F  
Max Temperature 67 °F 69 °F 91 °F (1962)
Min Temperature 40 °F 46 °F 29 °F (1987)
Degree Days  
Heating Degree Days 12    
Cooling Degree Days 0 0  
Month to date cooling degree days 0 0  
Year to date cooling degree days 0 0  
Growing Degree Days 4 (Base 50)    
Moisture  
Dew Point 49 °F    
Average Humidity 76    
Maximum Humidity 93    
Minimum Humidity 58    
Precipitation  
Precipitation 0.14 in - 0.99 in (1984)
Month to date precipitation 0.55  
Year to date precipitation 4.51  
Sea Level Pressure  
Sea Level Pressure 30.17 in    
Wind  
Wind Speed 8 mph (SSE)    
Max Wind Speed 18 mph    
Max Gust Speed 28 mph    
Visibility 10 miles    
Events Rain    
T = Trace of Precipitation, MM = Missing Value Source: NWS Daily Summary

Daily Weather History Graph

Daily Weather History Graph

Search for Another Location

Airport or City:

Trip Planner

Search our weather history database for the weather conditions in past years. The results will help you decide how hot, cold, wet, or windy it might be!

Date:

Astronomy

May. 19, 2013 Rise Set
Actual Time 5:21 AM EDT 8:19 PM EDT
Civil Twilight 4:47 AM EDT 8:54 PM EDT
Nautical Twilight 4:03 AM EDT 9:38 PM EDT
Astronomical Twilight 3:10 AM EDT 10:31 PM EDT
Moon 2:07 PM EDT (5/19) 1:58 AM EDT (5/19)
Length of Visible Light 16h 07m
Length of Day
14h 58m
Waxing Gibbous, 65% of the Moon is Illuminated
May 19
Waxing Gibbous
May 25
Full
May 31
Last Quarter
Jun 8
New
Jun 16
First Quarter

Hourly Weather History & Observations

Time (EDT) Temp. Dew Point Humidity Pressure Visibility Wind Dir Wind Speed Gust Speed Precip Events Conditions
12:53 AM 46.0 °F 37.9 °F 73% 30.22 in 10.0 mi Calm Calm - N/A   Unknown
1:53 AM 44.1 °F 37.9 °F 79% 30.22 in 10.0 mi Calm Calm - N/A   Clear
2:53 AM 43.0 °F 37.0 °F 80% 30.23 in 10.0 mi Calm Calm - N/A   Clear
3:53 AM 42.1 °F 37.9 °F 85% 30.24 in 10.0 mi Calm Calm - N/A   Clear
4:53 AM 41.0 °F 37.9 °F 89% 30.24 in 10.0 mi Calm Calm - N/A   Clear
6:53 AM 48.9 °F 41.0 °F 74% 30.26 in 10.0 mi Calm Calm - N/A   Clear
8:53 AM 55.9 °F 48.0 °F 75% 30.26 in 10.0 mi SE 8.1 mph - N/A   Clear
9:53 AM 57.9 °F 48.0 °F 70% 30.25 in 10.0 mi SSE 9.2 mph - N/A   Clear
10:53 AM 61.0 °F 50.0 °F 67% 30.25 in 10.0 mi SE 11.5 mph - N/A   Clear
11:53 AM 64.0 °F 51.1 °F 63% 30.23 in 10.0 mi SE 13.8 mph - N/A   Clear
12:53 PM 64.9 °F 51.1 °F 61% 30.21 in 10.0 mi SSE 13.8 mph - N/A   Clear
1:53 PM 66.0 °F 52.0 °F 60% 30.19 in 10.0 mi SSE 13.8 mph 20.7 mph N/A   Scattered Clouds
3:53 PM 62.1 °F 52.0 °F 70% 30.18 in 10.0 mi SSE 15.0 mph - N/A   Mostly Cloudy
4:53 PM 60.1 °F 53.1 °F 78% 30.16 in 10.0 mi SSE 13.8 mph 20.7 mph 0.00 in Rain Light Rain
5:53 PM 55.9 °F 54.0 °F 93% 30.15 in 10.0 mi SE 9.2 mph - 0.02 in Rain Light Rain
6:53 PM 55.0 °F 54.0 °F 96% 30.14 in 10.0 mi SE 8.1 mph - 0.02 in   Overcast
7:53 PM 55.9 °F 54.0 °F 93% 30.13 in 3.0 mi SSE 9.2 mph - 0.03 in Rain Light Rain
8:53 PM 55.0 °F 54.0 °F 96% 30.12 in 8.0 mi SSE 10.4 mph - 0.04 in Rain Light Rain
9:46 PM 55.4 °F 53.6 °F 94% 30.10 in 10.0 mi SSE 15.0 mph - 0.02 in   Overcast
9:53 PM 55.0 °F 53.1 °F 93% 30.10 in 10.0 mi SSE 12.7 mph - 0.02 in Rain Light Rain
9:59 PM 55.4 °F 53.6 °F 94% 30.10 in 10.0 mi SSE 9.2 mph - 0.00 in Rain Light Rain
10:35 PM 55.4 °F 53.6 °F 94% 30.08 in 10.0 mi SSE 10.4 mph - 0.01 in Rain Light Rain
10:48 PM 55.4 °F 53.6 °F 94% 30.08 in 10.0 mi SSE 10.4 mph - 0.01 in Rain Light Rain
10:53 PM 55.0 °F 54.0 °F 96% 30.09 in 10.0 mi SSE 8.1 mph - 0.01 in   Overcast
11:03 PM 55.4 °F 53.6 °F 94% 30.08 in 10.0 mi SSE 6.9 mph - N/A   Overcast
11:53 PM 55.9 °F 54.0 °F 93% 30.07 in 10.0 mi South 8.1 mph - N/A   Overcast